Time,TemperatureF,DewpointF,PressureIn,WindDirection,WindDirectionDegrees,WindSpeedMPH,WindSpeedGustMPH,Humidity,HourlyPrecipIn,Conditions,Clouds,dailyrainin,SolarRadiationWatts/m^2,SoftwareType,DateUTC
2013-06-16 00:00:00,82.2,71.5,29.98,ESE,112,6.9,6.9,70,0.00,CLR,,0.00,710.0,WeatherDisplay:10.37,2013-06-16 05:00:00,
2013-06-16 00:05:00,82.2,71.5,29.98,ESE,112,4.6,4.6,70,0.00,CLR,,0.00,710.0,WeatherDisplay:10.37,2013-06-16 05:05:00,
2013-06-16 00:10:00,82.0,71.7,29.99,ESE,112,4.6,4.6,71,0.00,CLR,,0.00,770.0,WeatherDisplay:10.37,2013-06-16 05:10:00,
2013-06-16 00:16:00,81.9,71.5,29.99,SE,135,4.6,4.6,71,0.00,CLR,,0.00,770.0,WeatherDisplay:10.37,2013-06-16 05:16:00,
2013-06-16 00:21:00,81.9,71.5,29.99,East,90,3.5,3.5,71,0.00,CLR,,0.00,800.0,WeatherDisplay:10.37,2013-06-16 05:21:00,
2013-06-16 00:26:00,81.7,71.4,29.99,SSE,158,3.5,3.5,71,0.00,CLR,,0.00,810.0,WeatherDisplay:10.37,2013-06-16 05:26:00,
2013-06-16 00:31:00,81.7,71.8,29.98,SE,135,3.8,3.8,72,0.00,CLR,,0.00,840.0,WeatherDisplay:10.37,2013-06-16 05:31:00,
2013-06-16 00:37:00,81.7,71.8,29.98,SE,135,4.6,4.6,72,0.00,CLR,,0.00,850.0,WeatherDisplay:10.37,2013-06-16 05:37:00,
2013-06-16 00:42:00,81.5,71.6,29.98,ESE,112,5.8,5.8,72,0.00,CLR,,0.00,860.0,WeatherDisplay:10.37,2013-06-16 05:42:00,
2013-06-16 00:47:00,81.5,72.0,29.98,ESE,112,4.6,4.6,73,0.00,CLR,,0.00,870.0,WeatherDisplay:10.37,2013-06-16 05:47:00,
2013-06-16 00:52:00,81.3,71.8,29.99,ESE,112,2.3,3.0,73,0.00,CLR,,0.00,870.0,WeatherDisplay:10.37,2013-06-16 05:52:00,
2013-06-16 00:58:00,81.5,72.0,29.99,ESE,112,4.6,4.6,73,0.00,CLR,,0.00,680.0,WeatherDisplay:10.37,2013-06-16 05:58:00,
2013-06-16 01:03:00,81.3,71.8,29.99,East,90,3.5,3.5,73,0.00,CLR,,0.00,680.0,WeatherDisplay:10.37,2013-06-16 06:03:00,
2013-06-16 01:08:00,81.3,72.2,29.99,ESE,112,3.5,3.5,74,0.00,CLR,,0.00,640.0,WeatherDisplay:10.37,2013-06-16 06:08:00,
2013-06-16 01:13:00,81.1,72.1,29.99,SSE,158,2.3,2.5,74,0.00,CLR,,0.00,650.0,WeatherDisplay:10.37,2013-06-16 06:13:00,
2013-06-16 01:19:00,81.1,72.1,29.99,ESE,112,1.2,2.4,74,0.00,CLR,,0.00,0.0,WeatherDisplay:10.37,2013-06-16 06:19:00,
2013-06-16 01:24:00,81.0,71.9,29.99,ESE,112,4.6,4.6,74,0.00,CLR,,0.00,640.0,WeatherDisplay:10.37,2013-06-16 06:24:00,
2013-06-16 01:29:00,81.0,72.3,29.99,ESE,112,2.3,2.3,75,0.00,CLR,,0.00,630.0,WeatherDisplay:10.37,2013-06-16 06:29:00,
2013-06-16 01:34:00,81.0,72.3,29.98,East,90,2.3,2.3,75,0.00,CLR,,0.00,630.0,WeatherDisplay:10.37,2013-06-16 06:34:00,
2013-06-16 01:39:00,81.0,72.3,29.98,ESE,112,3.5,3.5,75,0.00,CLR,,0.00,630.0,WeatherDisplay:10.37,2013-06-16 06:39:00,
2013-06-16 01:44:00,80.8,72.5,29.98,ESE,112,2.3,2.3,76,0.00,CLR,,0.00,620.0,WeatherDisplay:10.37,2013-06-16 06:44:00,
2013-06-16 01:49:00,80.8,72.5,29.98,East,90,2.5,2.5,76,0.00,CLR,,0.00,590.0,WeatherDisplay:10.37,2013-06-16 06:49:00,
2013-06-16 01:55:00,80.6,72.3,29.98,ESE,112,2.3,2.3,76,0.00,CLR,,0.00,0.0,WeatherDisplay:10.37,2013-06-16 06:55:00,
2013-06-16 02:00:00,80.8,72.5,29.98,East,90,3.5,3.5,76,0.00,CLR,,0.00,530.0,WeatherDisplay:10.37,2013-06-16 07:00:00,
2013-06-16 02:05:00,80.6,72.7,29.98,SE,135,2.3,3.0,77,0.00,CLR,,0.00,530.0,WeatherDisplay:10.37,2013-06-16 07:05:00,
2013-06-16 02:10:00,80.4,72.5,29.98,East,90,2.3,2.6,77,0.00,CLR,,0.00,540.0,WeatherDisplay:10.37,2013-06-16 07:10:00,
2013-06-16 02:15:00,80.2,72.4,29.98,ESE,112,4.6,4.6,77,0.00,CLR,,0.00,520.0,WeatherDisplay:10.37,2013-06-16 07:15:00,
2013-06-16 02:21:00,80.2,72.4,29.98,ENE,68,3.5,3.5,77,0.00,CLR,,0.00,520.0,WeatherDisplay:10.37,2013-06-16 07:21:00,
2013-06-16 02:26:00,80.4,72.9,29.98,ESE,112,4.6,4.6,78,0.00,CLR,,0.00,520.0,WeatherDisplay:10.37,2013-06-16 07:26:00,
2013-06-16 02:31:00,80.2,72.8,29.98,SE,135,2.3,2.6,78,0.00,CLR,,0.00,530.0,WeatherDisplay:10.37,2013-06-16 07:31:00,
2013-06-16 02:36:00,80.1,72.6,29.98,East,90,3.5,3.5,78,0.00,CLR,,0.00,550.0,WeatherDisplay:10.37,2013-06-16 07:36:00,
2013-06-16 02:41:00,80.1,73.0,29.98,WSW,248,1.8,2.4,79,0.00,CLR,,0.00,550.0,WeatherDisplay:10.37,2013-06-16 07:41:00,
2013-06-16 02:46:00,80.1,73.0,29.98,ESE,112,3.5,3.5,79,0.00,CLR,,0.00,560.0,WeatherDisplay:10.37,2013-06-16 07:46:00,
2013-06-16 02:51:00,79.9,72.8,29.96,SE,135,3.5,3.5,79,0.00,CLR,,0.00,550.0,WeatherDisplay:10.37,2013-06-16 07:51:00,
2013-06-16 02:56:00,80.1,73.0,29.96,ESE,112,3.5,3.5,79,0.00,CLR,,0.00,550.0,WeatherDisplay:10.37,2013-06-16 07:56:00,
2013-06-16 03:02:00,79.9,72.8,29.96,SE,135,2.3,2.3,79,0.00,CLR,,0.00,550.0,WeatherDisplay:10.37,2013-06-16 08:02:00,
2013-06-16 03:07:00,79.9,72.8,29.96,SE,135,2.3,2.3,79,0.00,CLR,,0.00,550.0,WeatherDisplay:10.37,2013-06-16 08:07:00,
2013-06-16 03:12:00,79.7,73.0,29.95,ESE,112,4.6,4.6,80,0.00,CLR,,0.00,590.0,WeatherDisplay:10.37,2013-06-16 08:12:00,
2013-06-16 03:17:00,79.5,72.8,29.95,SE,135,2.3,2.3,80,0.00,CLR,,0.00,590.0,WeatherDisplay:10.37,2013-06-16 08:17:00,
2013-06-16 03:22:00,79.5,72.8,29.95,ESE,112,3.5,3.5,80,0.00,CLR,,0.00,590.0,WeatherDisplay:10.37,2013-06-16 08:22:00,
2013-06-16 03:27:00,79.7,73.0,29.95,ESE,112,4.6,4.6,80,0.00,CLR,,0.00,600.0,WeatherDisplay:10.37,2013-06-16 08:27:00,
2013-06-16 03:33:00,79.5,72.8,29.95,SE,135,3.5,3.5,80,0.00,CLR,,0.00,600.0,WeatherDisplay:10.37,2013-06-16 08:33:00,
2013-06-16 03:38:00,79.5,72.8,29.95,SE,135,4.6,4.6,80,0.00,CLR,,0.00,620.0,WeatherDisplay:10.37,2013-06-16 08:38:00,
2013-06-16 03:43:00,79.3,72.6,29.95,SSE,158,3.5,3.5,80,0.00,CLR,,0.00,610.0,WeatherDisplay:10.37,2013-06-16 08:43:00,
2013-06-16 03:49:00,79.3,72.6,29.95,ESE,112,3.5,3.5,80,0.00,CLR,,0.00,610.0,WeatherDisplay:10.37,2013-06-16 08:49:00,
2013-06-16 03:54:00,79.3,72.6,29.95,ESE,112,4.6,4.6,80,0.00,CLR,,0.00,0.0,WeatherDisplay:10.37,2013-06-16 08:54:00,
2013-06-16 03:59:00,79.2,72.8,29.95,SSE,158,4.6,4.6,81,0.00,CLR,,0.00,0.0,WeatherDisplay:10.37,2013-06-16 08:59:00,
2013-06-16 04:04:00,79.3,73.0,29.95,ESE,112,8.1,8.1,81,0.00,CLR,,0.00,570.0,WeatherDisplay:10.37,2013-06-16 09:04:00,
2013-06-16 04:09:00,79.2,72.8,29.95,ESE,112,5.8,5.8,81,0.00,CLR,,0.00,500.0,WeatherDisplay:10.37,2013-06-16 09:09:00,
2013-06-16 04:14:00,79.2,72.8,29.95,SE,135,6.9,6.9,81,0.00,CLR,,0.00,420.0,WeatherDisplay:10.37,2013-06-16 09:14:00,
2013-06-16 04:19:00,79.2,72.8,29.95,SSE,158,2.3,2.9,81,0.00,CLR,,0.00,410.0,WeatherDisplay:10.37,2013-06-16 09:19:00,
2013-06-16 04:24:00,79.0,72.6,29.95,SSE,158,2.3,2.4,81,0.00,CLR,,0.00,480.0,WeatherDisplay:10.37,2013-06-16 09:24:00,
2013-06-16 04:30:00,79.0,72.6,29.95,SSE,158,2.3,2.3,81,0.00,CLR,,0.00,480.0,WeatherDisplay:10.37,2013-06-16 09:30:00,
2013-06-16 04:35:00,79.0,72.6,29.95,ESE,112,2.3,2.3,81,0.00,CLR,,0.00,460.0,WeatherDisplay:10.37,2013-06-16 09:35:00,
2013-06-16 04:40:00,78.8,72.5,29.95,ESE,112,2.3,2.3,81,0.00,CLR,,0.00,430.0,WeatherDisplay:10.37,2013-06-16 09:40:00,
2013-06-16 04:45:00,78.8,72.5,29.95,South,180,1.2,1.4,81,0.00,CLR,,0.00,420.0,WeatherDisplay:10.37,2013-06-16 09:45:00,
2013-06-16 04:50:00,78.8,72.5,29.97,SE,135,2.3,2.3,81,0.00,CLR,,0.00,440.0,WeatherDisplay:10.37,2013-06-16 09:50:00,
2013-06-16 04:55:00,78.8,72.5,29.97,SE,135,0.0,1.2,81,0.00,CLR,,0.00,420.0,WeatherDisplay:10.37,2013-06-16 09:55:00,
2013-06-16 05:00:00,78.8,72.5,29.97,SSW,202,2.3,2.3,81,0.00,CLR,,0.00,410.0,WeatherDisplay:10.37,2013-06-16 10:00:00,
2013-06-16 05:05:00,78.6,72.3,29.97,South,180,2.3,2.3,81,0.00,CLR,,0.00,420.0,WeatherDisplay:10.37,2013-06-16 10:05:00,
2013-06-16 05:11:00,78.6,72.3,29.97,SSE,158,2.3,2.3,81,0.00,CLR,,0.00,0.0,WeatherDisplay:10.37,2013-06-16 10:11:00,
2013-06-16 05:16:00,78.4,72.1,29.97,WNW,292,3.5,3.5,81,0.00,CLR,,0.00,390.0,WeatherDisplay:10.37,2013-06-16 10:16:00,
2013-06-16 05:21:00,78.6,72.3,29.97,SSE,158,2.3,2.3,81,0.00,CLR,,0.00,360.0,WeatherDisplay:10.37,2013-06-16 10:21:00,
2013-06-16 05:26:00,78.6,72.3,29.97,ESE,112,2.3,2.3,81,0.00,CLR,,0.00,400.0,WeatherDisplay:10.37,2013-06-16 10:26:00,
2013-06-16 05:31:00,78.6,72.3,29.99,SSE,158,4.0,4.0,81,0.00,CLR,,0.00,400.0,WeatherDisplay:10.37,2013-06-16 10:31:00,
2013-06-16 05:36:00,78.6,72.3,29.99,SSE,158,2.3,2.3,81,0.00,CLR,,0.00,370.0,WeatherDisplay:10.37,2013-06-16 10:36:00,
2013-06-16 05:41:00,78.3,71.9,29.99,SSE,158,1.2,1.6,81,0.00,CLR,,0.00,430.0,WeatherDisplay:10.37,2013-06-16 10:41:00,
2013-06-16 05:47:00,78.3,71.9,29.99,SSE,158,1.4,1.4,81,0.00,CLR,,0.00,500.0,WeatherDisplay:10.37,2013-06-16 10:47:00,
2013-06-16 05:52:00,78.3,71.9,29.99,South,180,0.0,0.7,81,0.00,CLR,,0.00,550.0,WeatherDisplay:10.37,2013-06-16 10:52:00,
2013-06-16 05:57:00,78.1,71.8,29.99,SW,225,0.0,0.2,81,0.00,CLR,,0.00,430.0,WeatherDisplay:10.37,2013-06-16 10:57:00,
2013-06-16 06:02:00,78.3,71.9,29.99,South,180,0.0,0.2,81,0.00,OVC,,0.00,430.0,WeatherDisplay:10.37,2013-06-16 11:02:00,
2013-06-16 06:08:00,78.3,71.9,29.99,South,180,0.0,0.2,81,0.00,OVC,,0.00,430.0,WeatherDisplay:10.37,2013-06-16 11:08:00,
2013-06-16 06:13:00,78.1,71.8,30.00,SW,225,0.0,0.7,81,0.00,OVC,,0.00,430.0,WeatherDisplay:10.37,2013-06-16 11:13:00,
2013-06-16 06:18:00,77.9,71.6,30.00,South,180,0.0,0.2,81,0.00,OVC,,0.00,410.0,WeatherDisplay:10.37,2013-06-16 11:18:00,
2013-06-16 06:23:00,78.1,71.8,30.00,South,180,0.0,0.0,81,0.00,OVC,,0.00,380.0,WeatherDisplay:10.37,2013-06-16 11:23:00,
2013-06-16 06:28:00,77.7,71.4,30.00,SSE,158,0.0,0.0,81,0.00,OVC,,0.00,350.0,WeatherDisplay:10.37,2013-06-16 11:28:00,
2013-06-16 06:33:00,77.7,71.8,30.01,SSE,158,0.0,0.0,82,0.00,OVC,,0.00,370.0,WeatherDisplay:10.37,2013-06-16 11:33:00,
2013-06-16 06:38:00,77.7,71.8,30.01,SSE,158,1.4,1.4,82,0.00,OVC,,0.00,410.0,WeatherDisplay:10.37,2013-06-16 11:38:00,
2013-06-16 06:43:00,77.7,71.8,30.01,South,180,1.2,1.2,82,0.00,OVC,,0.00,470.0,WeatherDisplay:10.37,2013-06-16 11:43:00,
2013-06-16 06:49:00,77.5,71.6,30.01,SSE,158,1.2,1.3,82,0.00,OVC,,0.00,460.0,WeatherDisplay:10.37,2013-06-16 11:49:00,
2013-06-16 06:54:00,77.5,71.6,30.02,SSE,158,2.3,2.3,82,0.00,OVC,,0.00,470.0,WeatherDisplay:10.37,2013-06-16 11:54:00,
2013-06-16 06:59:00,77.5,71.6,30.02,SE,135,1.2,1.2,82,0.00,OVC,,0.00,490.0,WeatherDisplay:10.37,2013-06-16 11:59:00,
2013-06-16 07:04:00,77.4,71.4,30.02,SSW,202,0.0,0.2,82,0.00,OVC,,0.00,520.0,WeatherDisplay:10.37,2013-06-16 12:04:00,
2013-06-16 07:09:00,77.4,71.4,30.02,SE,135,0.0,0.1,82,0.00,OVC,,0.00,520.0,WeatherDisplay:10.37,2013-06-16 12:09:00,
2013-06-16 07:14:00,77.5,71.6,30.02,SW,225,1.2,0.0,82,0.00,OVC,,0.00,510.0,WeatherDisplay:10.37,2013-06-16 12:14:00,
2013-06-16 07:19:00,77.4,71.4,30.02,SE,135,0.0,0.0,82,0.00,OVC,,0.00,540.0,WeatherDisplay:10.37,2013-06-16 12:19:00,
2013-06-16 07:25:00,77.5,71.6,30.02,SSE,158,0.0,0.2,82,0.00,OVC,,0.00,630.0,WeatherDisplay:10.37,2013-06-16 12:25:00,
2013-06-16 07:30:00,77.5,71.6,30.03,SSE,158,0.0,0.3,82,0.00,OVC,,0.00,800.0,WeatherDisplay:10.37,2013-06-16 12:30:00,
2013-06-16 07:35:00,77.4,71.4,30.03,SSE,158,0.0,0.2,82,0.00,OVC,,0.00,1040.0,WeatherDisplay:10.37,2013-06-16 12:35:00,
2013-06-16 07:40:00,77.4,71.4,30.03,SSE,158,0.0,0.2,82,0.00,OVC,,0.00,1410.0,WeatherDisplay:10.37,2013-06-16 12:40:00,
2013-06-16 07:46:00,77.5,71.6,30.03,SE,135,0.0,0.2,82,0.00,OVC,,0.00,1460.0,WeatherDisplay:10.37,2013-06-16 12:46:00,
2013-06-16 07:51:00,77.5,71.6,30.04,SE,135,3.5,3.5,82,0.00,OVC,,0.00,740.0,WeatherDisplay:10.37,2013-06-16 12:51:00,
2013-06-16 07:56:00,77.9,72.0,30.04,SSE,158,1.2,1.2,82,0.00,OVC,,0.00,400.0,WeatherDisplay:10.37,2013-06-16 12:56:00,
2013-06-16 08:01:00,77.9,72.0,30.04,SSE,158,0.0,1.0,82,0.00,OVC,,0.00,350.0,WeatherDisplay:10.37,2013-06-16 13:01:00,
2013-06-16 08:06:00,78.1,72.1,30.04,SE,135,2.3,2.3,82,0.00,OVC,,0.00,140.0,WeatherDisplay:10.37,2013-06-16 13:06:00,
2013-06-16 08:12:00,77.9,72.0,30.05,SSE,158,0.0,1.2,82,0.00,OVC,,0.00,90.0,WeatherDisplay:10.37,2013-06-16 13:12:00,
2013-06-16 08:17:00,78.1,72.1,30.05,ESE,112,1.2,1.2,82,0.00,OVC,,0.00,80.0,WeatherDisplay:10.37,2013-06-16 13:17:00,
2013-06-16 08:22:00,78.1,72.1,30.05,WSW,248,2.3,2.3,82,0.00,OVC,,0.00,70.0,WeatherDisplay:10.37,2013-06-16 13:22:00,
2013-06-16 08:27:00,78.1,72.1,30.05,South,180,2.3,2.3,82,0.00,OVC,,0.00,70.0,WeatherDisplay:10.37,2013-06-16 13:27:00,
2013-06-16 08:32:00,78.3,72.3,30.04,SE,135,0.0,0.8,82,0.00,OVC,,0.00,50.0,WeatherDisplay:10.37,2013-06-16 13:32:00,
2013-06-16 08:37:00,78.4,72.5,30.04,SSW,202,0.0,0.8,82,0.00,OVC,,0.00,40.0,WeatherDisplay:10.37,2013-06-16 13:37:00,
2013-06-16 08:42:00,78.6,72.7,30.04,SW,225,4.6,4.6,82,0.00,OVC,,0.00,40.0,WeatherDisplay:10.37,2013-06-16 13:42:00,
2013-06-16 08:47:00,79.0,73.0,30.04,ENE,68,2.3,2.3,82,0.00,OVC,,0.00,30.0,WeatherDisplay:10.37,2013-06-16 13:47:00,
2013-06-16 08:52:00,79.0,72.6,30.06,WSW,248,1.2,1.2,81,0.00,OVC,,0.00,30.0,WeatherDisplay:10.37,2013-06-16 13:52:00,
2013-06-16 08:57:00,79.3,72.6,30.06,South,180,0.0,0.2,80,0.00,OVC,,0.00,40.0,WeatherDisplay:10.37,2013-06-16 13:57:00,
2013-06-16 09:02:00,79.5,72.8,30.06,West,270,0.0,0.1,80,0.00,OVC,,0.00,40.0,WeatherDisplay:10.37,2013-06-16 14:02:00,
2013-06-16 09:08:00,79.7,72.6,30.06,NNW,338,0.0,0.1,79,0.00,OVC,,0.00,50.0,WeatherDisplay:10.37,2013-06-16 14:08:00,
2013-06-16 09:13:00,80.1,72.6,30.06,SW,225,0.0,0.1,78,0.00,OVC,,0.00,50.0,WeatherDisplay:10.37,2013-06-16 14:13:00,
2013-06-16 09:18:00,80.4,72.5,30.06,ENE,68,1.2,1.2,77,0.00,OVC,,0.00,50.0,WeatherDisplay:10.37,2013-06-16 14:18:00,
2013-06-16 09:23:00,80.8,72.5,30.06,West,270,0.0,0.1,76,0.00,OVC,,0.00,50.0,WeatherDisplay:10.37,2013-06-16 14:23:00,
2013-06-16 09:28:00,80.8,72.5,30.06,NNE,22,1.2,1.2,76,0.00,OVC,,0.00,60.0,WeatherDisplay:10.37,2013-06-16 14:28:00,
2013-06-16 09:34:00,81.0,71.9,30.06,NW,315,1.2,1.2,74,0.00,OVC,,0.00,60.0,WeatherDisplay:10.37,2013-06-16 14:34:00,
2013-06-16 09:39:00,81.5,72.4,30.06,NNW,338,0.0,0.3,74,0.00,OVC,,0.00,60.0,WeatherDisplay:10.37,2013-06-16 14:39:00,
2013-06-16 09:44:00,81.9,72.4,30.06,West,270,0.0,0.3,73,0.00,OVC,,0.00,50.0,WeatherDisplay:10.37,2013-06-16 14:44:00,
2013-06-16 09:49:00,82.0,72.5,30.06,South,180,1.2,1.2,73,0.00,OVC,,0.00,50.0,WeatherDisplay:10.37,2013-06-16 14:49:00,
2013-06-16 09:54:00,82.2,72.3,30.06,SW,225,1.2,1.2,72,0.00,OVC,,0.00,60.0,WeatherDisplay:10.37,2013-06-16 14:54:00,
2013-06-16 10:00:00,82.6,72.2,30.06,NNE,22,1.2,1.2,71,0.00,OVC,,0.00,60.0,WeatherDisplay:10.37,2013-06-16 15:00:00,
2013-06-16 10:05:00,82.9,72.1,30.06,ESE,112,0.0,0.2,70,0.00,OVC,,0.00,60.0,WeatherDisplay:10.37,2013-06-16 15:05:00,
2013-06-16 10:10:00,83.3,72.5,30.05,WSW,248,1.2,1.2,70,0.00,OVC,,0.00,60.0,WeatherDisplay:10.37,2013-06-16 15:10:00,
2013-06-16 10:15:00,83.3,71.6,30.05,WSW,248,1.2,1.2,68,0.00,OVC,,0.00,60.0,WeatherDisplay:10.37,2013-06-16 15:15:00,
2013-06-16 10:21:00,83.5,71.8,30.05,WSW,248,1.4,1.4,68,0.00,OVC,,0.00,60.0,WeatherDisplay:10.37,2013-06-16 15:21:00,
2013-06-16 10:26:00,84.0,72.3,30.05,West,270,1.5,1.5,68,0.00,OVC,,0.00,60.0,WeatherDisplay:10.37,2013-06-16 15:26:00,
2013-06-16 10:31:00,84.0,71.9,30.03,East,90,1.2,1.2,67,0.00,OVC,,0.00,60.0,WeatherDisplay:10.37,2013-06-16 15:31:00,
2013-06-16 10:36:00,84.2,72.5,30.03,South,180,2.3,2.3,68,0.00,OVC,,0.00,60.0,WeatherDisplay:10.37,2013-06-16 15:36:00,
2013-06-16 10:41:00,84.7,72.6,30.03,WSW,248,0.0,0.8,67,0.00,OVC,,0.00,50.0,WeatherDisplay:10.37,2013-06-16 15:41:00,
2013-06-16 10:46:00,84.6,72.4,30.03,South,180,1.2,1.2,67,0.00,OVC,,0.00,50.0,WeatherDisplay:10.37,2013-06-16 15:46:00,
2013-06-16 10:52:00,85.1,72.9,30.03,SE,135,1.2,1.3,67,0.00,OVC,,0.00,50.0,WeatherDisplay:10.37,2013-06-16 15:52:00,
2013-06-16 10:57:00,84.9,72.3,30.03,SW,225,3.5,3.5,66,0.00,OVC,,0.00,40.0,WeatherDisplay:10.37,2013-06-16 15:57:00,
2013-06-16 11:02:00,85.3,73.1,30.03,SW,225,3.5,3.5,67,0.00,OVC,,0.00,40.0,WeatherDisplay:10.37,2013-06-16 16:02:00,
2013-06-16 11:07:00,85.6,73.0,30.03,SSE,158,0.0,0.6,66,0.00,OVC,,0.00,40.0,WeatherDisplay:10.37,2013-06-16 16:07:00,
2013-06-16 11:12:00,85.6,73.0,30.04,South,180,1.2,1.2,66,0.00,OVC,,0.00,40.0,WeatherDisplay:10.37,2013-06-16 16:12:00,
2013-06-16 11:17:00,86.0,72.4,30.04,WSW,248,1.2,1.2,64,0.00,OVC,,0.00,50.0,WeatherDisplay:10.37,2013-06-16 16:17:00,
2013-06-16 11:22:00,86.0,72.4,30.04,West,270,1.2,1.2,64,0.00,CLR,,0.00,50.0,WeatherDisplay:10.37,2013-06-16 16:22:00,
2013-06-16 11:27:00,86.4,72.3,30.04,SW,225,2.3,2.3,63,0.00,CLR,,0.00,40.0,WeatherDisplay:10.37,2013-06-16 16:27:00,
2013-06-16 11:33:00,86.7,73.1,30.04,SSW,202,0.0,0.3,64,0.00,CLR,,0.00,40.0,WeatherDisplay:10.37,2013-06-16 16:33:00,
2013-06-16 11:38:00,86.9,72.8,30.04,NNW,338,1.4,1.4,63,0.00,CLR,,0.00,40.0,WeatherDisplay:10.37,2013-06-16 16:38:00,
2013-06-16 11:43:00,87.3,73.1,30.04,WSW,248,1.5,1.5,63,0.00,SCT,,0.00,40.0,WeatherDisplay:10.37,2013-06-16 16:43:00,
2013-06-16 11:48:00,87.1,73.4,30.04,WSW,248,1.2,1.2,64,0.00,BKN,,0.00,30.0,WeatherDisplay:10.37,2013-06-16 16:48:00,
2013-06-16 11:53:00,87.1,73.0,30.05,SSE,158,2.1,2.1,63,0.00,OVC,,0.00,30.0,WeatherDisplay:10.37,2013-06-16 16:53:00,
2013-06-16 11:58:00,87.6,73.9,30.05,South,180,2.3,2.3,64,0.00,OVC,,0.00,30.0,WeatherDisplay:10.37,2013-06-16 16:58:00,
2013-06-16 12:03:00,87.6,73.5,30.05,SSE,158,0.0,1.0,63,0.00,OVC,,0.00,30.0,WeatherDisplay:10.37,2013-06-16 17:03:00,
2013-06-16 12:08:00,87.6,73.5,30.05,SSE,158,0.0,1.0,63,0.00,OVC,,0.00,30.0,WeatherDisplay:10.37,2013-06-16 17:08:00,
2013-06-16 12:13:00,88.2,73.5,30.03,ESE,112,3.5,3.5,62,0.00,OVC,,0.00,30.0,WeatherDisplay:10.37,2013-06-16 17:13:00,
2013-06-16 12:19:00,88.0,73.3,30.03,WSW,248,0.0,0.3,62,0.00,OVC,,0.00,20.0,WeatherDisplay:10.37,2013-06-16 17:19:00,
2013-06-16 12:24:00,88.0,73.3,30.03,SSE,158,1.2,1.2,62,0.00,OVC,,0.00,20.0,WeatherDisplay:10.37,2013-06-16 17:24:00,
2013-06-16 12:29:00,88.0,73.8,30.03,SSW,202,3.5,3.5,63,0.00,OVC,,0.00,20.0,WeatherDisplay:10.37,2013-06-16 17:29:00,
2013-06-16 12:34:00,88.0,73.8,30.03,SW,225,2.3,2.3,63,0.00,OVC,,0.00,20.0,WeatherDisplay:10.37,2013-06-16 17:34:00,
2013-06-16 12:40:00,88.3,74.1,30.03,SE,135,2.3,2.3,63,0.00,OVC,,0.00,20.0,WeatherDisplay:10.37,2013-06-16 17:40:00,
2013-06-16 12:45:00,88.3,74.1,30.03,SSE,158,2.3,2.3,63,0.00,OVC,,0.00,20.0,WeatherDisplay:10.37,2013-06-16 17:45:00,
2013-06-16 12:50:00,88.7,74.0,30.02,SW,225,1.2,2.4,62,0.00,OVC,,0.00,20.0,WeatherDisplay:10.37,2013-06-16 17:50:00,
2013-06-16 12:55:00,88.9,74.2,30.02,East,90,4.6,4.6,62,0.00,OVC,,0.00,20.0,WeatherDisplay:10.37,2013-06-16 17:55:00,
2013-06-16 13:00:00,88.9,73.7,30.02,SSW,202,2.3,2.6,61,0.00,OVC,,0.00,10.0,WeatherDisplay:10.37,2013-06-16 18:00:00,
2013-06-16 13:05:00,88.9,73.2,30.02,WSW,248,2.4,2.4,60,0.00,OVC,,0.00,10.0,WeatherDisplay:10.37,2013-06-16 18:05:00,
2013-06-16 13:10:00,89.1,74.3,30.01,SE,135,3.8,3.8,62,0.00,OVC,,0.00,20.0,WeatherDisplay:10.37,2013-06-16 18:10:00,
2013-06-16 13:15:00,89.4,74.2,30.01,East,90,4.6,4.6,61,0.00,OVC,,0.00,30.0,WeatherDisplay:10.37,2013-06-16 18:15:00,
2013-06-16 13:21:00,89.4,73.7,30.01,SSE,158,5.8,5.8,60,0.00,OVC,,0.00,20.0,WeatherDisplay:10.37,2013-06-16 18:21:00,
2013-06-16 13:26:00,89.4,74.2,30.01,South,180,3.5,3.5,61,0.00,OVC,,0.00,10.0,WeatherDisplay:10.37,2013-06-16 18:26:00,
2013-06-16 13:31:00,89.8,74.5,30.00,WSW,248,4.6,4.6,61,0.00,OVC,,0.00,20.0,WeatherDisplay:10.37,2013-06-16 18:31:00,
2013-06-16 13:36:00,90.1,73.4,30.00,SSE,158,2.3,2.3,58,0.00,OVC,,0.00,30.0,WeatherDisplay:10.37,2013-06-16 18:36:00,
2013-06-16 13:42:00,90.1,74.4,30.00,SSE,158,5.8,5.8,60,0.00,OVC,,0.00,20.0,WeatherDisplay:10.37,2013-06-16 18:42:00,
2013-06-16 13:47:00,90.0,73.7,30.00,SSE,158,1.6,3.1,59,0.00,OVC,,0.00,30.0,WeatherDisplay:10.37,2013-06-16 18:47:00,
2013-06-16 13:52:00,90.3,74.0,29.99,SE,135,8.1,8.1,59,0.00,OVC,,0.00,20.0,WeatherDisplay:10.37,2013-06-16 18:52:00,
2013-06-16 13:57:00,90.5,73.7,29.99,SE,135,5.8,5.8,58,0.00,OVC,,0.00,20.0,WeatherDisplay:10.37,2013-06-16 18:57:00,
2013-06-16 14:02:00,90.7,73.9,29.99,SSE,158,3.5,3.5,58,0.00,OVC,,0.00,30.0,WeatherDisplay:10.37,2013-06-16 19:02:00,
2013-06-16 14:07:00,91.2,73.9,29.99,SSE,158,1.2,2.3,57,0.00,OVC,,0.00,30.0,WeatherDisplay:10.37,2013-06-16 19:07:00,
2013-06-16 14:12:00,91.4,73.5,30.00,North,0,6.9,6.9,56,0.00,OVC,,0.00,30.0,WeatherDisplay:10.37,2013-06-16 19:12:00,
2013-06-16 14:17:00,91.0,73.2,30.00,ESE,112,6.9,6.9,56,0.00,OVC,,0.00,20.0,WeatherDisplay:10.37,2013-06-16 19:17:00,
2013-06-16 14:22:00,90.9,73.5,30.00,SSE,158,5.8,5.8,57,0.00,OVC,,0.00,20.0,WeatherDisplay:10.37,2013-06-16 19:22:00,
2013-06-16 14:28:00,91.2,73.9,30.00,ESE,112,2.3,2.3,57,0.00,OVC,,0.00,20.0,WeatherDisplay:10.37,2013-06-16 19:28:00,
2013-06-16 14:33:00,91.0,73.2,29.99,East,90,3.5,3.5,56,0.00,OVC,,0.00,20.0,WeatherDisplay:10.37,2013-06-16 19:33:00,
2013-06-16 14:38:00,91.4,73.5,29.99,South,180,6.9,6.9,56,0.00,OVC,,0.00,20.0,WeatherDisplay:10.37,2013-06-16 19:38:00,
2013-06-16 14:43:00,91.4,73.5,29.99,SE,135,4.6,4.6,56,0.00,OVC,,0.00,20.0,WeatherDisplay:10.37,2013-06-16 19:43:00,
2013-06-16 14:48:00,91.8,73.3,29.99,South,180,4.6,4.6,55,0.00,OVC,,0.00,30.0,WeatherDisplay:10.37,2013-06-16 19:48:00,
2013-06-16 14:53:00,92.3,73.2,29.98,South,180,2.3,2.3,54,0.00,OVC,,0.00,30.0,WeatherDisplay:10.37,2013-06-16 19:53:00,
2013-06-16 14:58:00,92.1,72.5,29.98,South,180,5.8,5.8,53,0.00,OVC,,0.00,30.0,WeatherDisplay:10.37,2013-06-16 19:58:00,
2013-06-16 15:04:00,92.3,73.2,29.98,South,180,6.9,6.9,54,0.00,OVC,,0.00,30.0,WeatherDisplay:10.37,2013-06-16 20:04:00,
2013-06-16 15:09:00,92.3,72.7,29.98,SSE,158,2.3,2.5,53,0.00,OVC,,0.00,30.0,WeatherDisplay:10.37,2013-06-16 20:09:00,
2013-06-16 15:14:00,92.7,73.0,29.97,SE,135,4.6,4.6,53,0.00,OVC,,0.00,30.0,WeatherDisplay:10.37,2013-06-16 20:14:00,
2013-06-16 15:19:00,92.7,73.0,29.97,SSE,158,0.0,1.8,53,0.00,OVC,,0.00,30.0,WeatherDisplay:10.37,2013-06-16 20:19:00,
2013-06-16 15:24:00,92.7,71.9,29.97,SE,135,4.6,4.6,51,0.00,OVC,,0.00,30.0,WeatherDisplay:10.37,2013-06-16 20:24:00,
2013-06-16 15:29:00,93.0,72.8,29.95,SSE,158,2.3,2.3,52,0.00,OVC,,0.00,30.0,WeatherDisplay:10.37,2013-06-16 20:29:00,
2013-06-16 15:34:00,93.0,72.2,29.95,SSE,158,6.9,6.9,51,0.00,OVC,,0.00,30.0,WeatherDisplay:10.37,2013-06-16 20:34:00,
2013-06-16 15:39:00,93.2,73.0,29.95,ESE,112,2.3,2.8,52,0.00,OVC,,0.00,30.0,WeatherDisplay:10.37,2013-06-16 20:39:00,
2013-06-16 15:44:00,93.4,72.5,29.95,SE,135,6.9,6.9,51,0.00,OVC,,0.00,30.0,WeatherDisplay:10.37,2013-06-16 20:44:00,
2013-06-16 15:49:00,93.7,72.3,29.96,East,90,1.2,2.1,50,0.00,OVC,,0.00,30.0,WeatherDisplay:10.37,2013-06-16 20:49:00,
2013-06-16 15:55:00,93.7,72.9,29.96,South,180,3.5,3.5,51,0.00,OVC,,0.00,30.0,WeatherDisplay:10.37,2013-06-16 20:55:00,
2013-06-16 16:00:00,93.7,72.9,29.96,SSE,158,5.8,5.8,51,0.00,OVC,,0.00,30.0,WeatherDisplay:10.37,2013-06-16 21:00:00,
2013-06-16 16:05:00,93.9,71.9,29.96,WSW,248,6.9,6.9,49,0.00,OVC,,0.00,30.0,WeatherDisplay:10.37,2013-06-16 21:05:00,
2013-06-16 16:10:00,93.9,72.5,29.95,SE,135,9.2,9.2,50,0.00,OVC,,0.00,30.0,WeatherDisplay:10.37,2013-06-16 21:10:00,
2013-06-16 16:15:00,94.1,72.0,29.95,WNW,292,2.3,2.3,49,0.00,OVC,,0.00,20.0,WeatherDisplay:10.37,2013-06-16 21:15:00,
2013-06-16 16:21:00,93.9,71.9,29.95,SSW,202,3.5,3.5,49,0.00,OVC,,0.00,20.0,WeatherDisplay:10.37,2013-06-16 21:21:00,
2013-06-16 16:26:00,94.1,72.6,29.95,SW,225,5.8,5.8,50,0.00,OVC,,0.00,30.0,WeatherDisplay:10.37,2013-06-16 21:26:00,
2013-06-16 16:31:00,93.9,72.5,29.95,SW,225,0.0,2.3,50,0.00,OVC,,0.00,30.0,WeatherDisplay:10.37,2013-06-16 21:31:00,
2013-06-16 16:36:00,94.5,71.7,29.95,SSW,202,2.3,2.3,48,0.00,OVC,,0.00,30.0,WeatherDisplay:10.37,2013-06-16 21:36:00,
2013-06-16 16:41:00,94.3,72.2,29.95,ESE,112,5.8,5.8,49,0.00,OVC,,0.00,30.0,WeatherDisplay:10.37,2013-06-16 21:41:00,
2013-06-16 16:46:00,94.5,72.3,29.95,SSE,158,3.7,3.7,49,0.00,OVC,,0.00,30.0,WeatherDisplay:10.37,2013-06-16 21:46:00,
2013-06-16 16:51:00,94.3,72.2,29.95,South,180,3.5,3.5,49,0.00,OVC,,0.00,30.0,WeatherDisplay:10.37,2013-06-16 21:51:00,
2013-06-16 16:56:00,94.3,71.6,29.95,SSE,158,2.3,2.3,48,0.00,OVC,,0.00,30.0,WeatherDisplay:10.37,2013-06-16 21:56:00,
2013-06-16 17:01:00,94.5,72.3,29.95,SSE,158,5.8,5.8,49,0.00,OVC,,0.00,30.0,WeatherDisplay:10.37,2013-06-16 22:01:00,
2013-06-16 17:07:00,94.6,73.1,29.95,SSE,158,4.6,4.6,50,0.00,OVC,,0.00,30.0,WeatherDisplay:10.37,2013-06-16 22:07:00,
2013-06-16 17:12:00,94.6,71.9,29.94,SE,135,5.8,5.8,48,0.00,OVC,,0.00,30.0,WeatherDisplay:10.37,2013-06-16 22:12:00,
2013-06-16 17:17:00,94.6,71.9,29.94,South,180,4.7,4.7,48,0.00,OVC,,0.00,20.0,WeatherDisplay:10.37,2013-06-16 22:17:00,
2013-06-16 17:22:00,94.3,71.6,29.94,ESE,112,5.8,5.8,48,0.00,OVC,,0.00,10.0,WeatherDisplay:10.37,2013-06-16 22:22:00,
2013-06-16 17:27:00,94.1,71.4,29.94,SE,135,2.3,3.5,48,0.00,OVC,,0.00,10.0,WeatherDisplay:10.37,2013-06-16 22:27:00,
2013-06-16 17:32:00,94.5,72.3,29.94,SE,135,4.6,4.6,49,0.00,OVC,,0.00,20.0,WeatherDisplay:10.37,2013-06-16 22:32:00,
2013-06-16 17:37:00,94.5,72.3,29.94,SE,135,3.5,3.5,49,0.00,OVC,,0.00,20.0,WeatherDisplay:10.37,2013-06-16 22:37:00,
2013-06-16 17:42:00,94.5,72.3,29.94,East,90,9.2,9.2,49,0.00,OVC,,0.00,20.0,WeatherDisplay:10.37,2013-06-16 22:42:00,
2013-06-16 17:47:00,94.8,72.1,29.94,South,180,4.6,4.6,48,0.00,OVC,,0.00,20.0,WeatherDisplay:10.37,2013-06-16 22:47:00,
2013-06-16 17:52:00,94.6,71.9,29.92,SSE,158,3.8,4.0,48,0.00,OVC,,0.00,20.0,WeatherDisplay:10.37,2013-06-16 22:52:00,
2013-06-16 17:58:00,94.8,72.1,29.92,ESE,112,5.8,5.8,48,0.00,OVC,,0.00,20.0,WeatherDisplay:10.37,2013-06-16 22:58:00,
2013-06-16 18:03:00,94.8,72.1,29.92,SE,135,5.1,5.1,48,0.00,OVC,,0.00,20.0,WeatherDisplay:10.37,2013-06-16 23:03:00,
2013-06-16 18:08:00,94.8,71.4,29.92,WSW,248,9.2,9.2,47,0.00,OVC,,0.00,20.0,WeatherDisplay:10.37,2013-06-16 23:08:00,
2013-06-16 18:13:00,94.6,71.3,29.92,SSE,158,8.1,8.1,47,0.00,OVC,,0.00,10.0,WeatherDisplay:10.37,2013-06-16 23:13:00,
2013-06-16 18:19:00,94.8,71.4,29.92,SE,135,6.9,6.9,47,0.00,OVC,,0.00,10.0,WeatherDisplay:10.37,2013-06-16 23:19:00,
2013-06-16 18:24:00,94.6,71.9,29.92,ESE,112,6.9,6.9,48,0.00,OVC,,0.00,10.0,WeatherDisplay:10.37,2013-06-16 23:24:00,
2013-06-16 18:29:00,94.8,71.4,29.92,South,180,5.8,5.8,47,0.00,OVC,,0.00,10.0,WeatherDisplay:10.37,2013-06-16 23:29:00,
2013-06-16 18:34:00,94.8,71.4,29.91,SE,135,4.6,4.6,47,0.00,OVC,,0.00,10.0,WeatherDisplay:10.37,2013-06-16 23:34:00,
2013-06-16 18:39:00,95.2,71.1,29.91,SE,135,6.9,6.9,46,0.00,OVC,,0.00,10.0,WeatherDisplay:10.37,2013-06-16 23:39:00,
2013-06-16 18:45:00,95.2,70.5,29.91,South,180,2.3,4.3,45,0.00,OVC,,0.00,10.0,WeatherDisplay:10.37,2013-06-16 23:45:00,
2013-06-16 18:50:00,95.2,70.5,29.91,NNW,338,8.1,8.1,45,0.00,OVC,,0.00,10.0,WeatherDisplay:10.37,2013-06-16 23:50:00,
2013-06-16 18:55:00,95.5,71.5,29.91,SSE,158,4.1,4.1,46,0.00,OVC,,0.00,10.0,WeatherDisplay:10.37,2013-06-16 23:55:00,
2013-06-16 19:00:00,95.5,72.1,29.91,South,180,5.8,5.8,47,0.00,OVC,,0.00,10.0,WeatherDisplay:10.37,2013-06-17 00:00:00,
2013-06-16 19:05:00,95.4,70.7,29.91,East,90,5.8,5.8,45,0.00,OVC,,0.00,10.0,WeatherDisplay:10.37,2013-06-17 00:05:00,
2013-06-16 19:10:00,95.4,70.7,29.92,SSE,158,5.8,5.8,45,0.00,OVC,,0.00,10.0,WeatherDisplay:10.37,2013-06-17 00:10:00,
2013-06-16 19:15:00,95.5,70.8,29.92,ESE,112,3.5,3.5,45,0.00,OVC,,0.00,10.0,WeatherDisplay:10.37,2013-06-17 00:15:00,
2013-06-16 19:22:00,95.4,70.0,29.92,North,0,6.9,0.0,44,0.00,OVC,,0.00,0.0,WeatherDisplay:10.37,2013-06-17 00:22:00,
2013-06-16 19:27:00,95.5,70.2,29.92,SE,135,4.7,4.7,44,0.00,OVC,,0.00,10.0,WeatherDisplay:10.37,2013-06-17 00:27:00,
2013-06-16 19:32:00,95.5,70.2,29.92,North,0,4.6,0.0,44,0.00,OVC,,0.00,0.0,WeatherDisplay:10.37,2013-06-17 00:32:00,
2013-06-16 19:38:00,95.2,69.8,29.91,SSE,158,5.8,5.8,44,0.00,OVC,,0.00,10.0,WeatherDisplay:10.37,2013-06-17 00:38:00,
2013-06-16 19:43:00,94.8,69.5,29.91,SE,135,3.5,4.1,44,0.00,OVC,,0.00,10.0,WeatherDisplay:10.37,2013-06-17 00:43:00,
2013-06-16 19:48:00,94.6,69.3,29.91,SE,135,5.8,5.8,44,0.00,OVC,,0.00,20.0,WeatherDisplay:10.37,2013-06-17 00:48:00,
2013-06-16 19:53:00,94.1,69.5,29.91,SSE,158,4.6,4.6,45,0.00,OVC,,0.00,20.0,WeatherDisplay:10.37,2013-06-17 00:53:00,
2013-06-16 19:58:00,94.1,68.9,29.91,SE,135,6.9,6.9,44,0.00,OVC,,0.00,30.0,WeatherDisplay:10.37,2013-06-17 00:58:00,
2013-06-16 20:04:00,93.7,69.2,29.91,ESE,112,4.6,4.6,45,0.00,OVC,,0.00,40.0,WeatherDisplay:10.37,2013-06-17 01:04:00,
2013-06-16 20:09:00,93.4,69.5,29.91,ESE,112,3.5,3.5,46,0.00,OVC,,0.00,50.0,WeatherDisplay:10.37,2013-06-17 01:09:00,
2013-06-16 20:14:00,93.2,68.7,29.91,SSE,158,8.1,8.1,45,0.00,OVC,,0.00,70.0,WeatherDisplay:10.37,2013-06-17 01:14:00,
2013-06-16 20:19:00,92.8,69.0,29.91,ESE,112,2.3,4.3,46,0.00,OVC,,0.00,80.0,WeatherDisplay:10.37,2013-06-17 01:19:00,
2013-06-16 20:24:00,92.5,68.7,29.91,SE,135,8.5,8.5,46,0.00,OVC,,0.00,100.0,WeatherDisplay:10.37,2013-06-17 01:24:00,
2013-06-16 20:30:00,92.5,68.7,29.91,SE,135,5.8,5.8,46,0.00,OVC,,0.00,140.0,WeatherDisplay:10.37,2013-06-17 01:30:00,
2013-06-16 20:35:00,92.1,69.0,29.91,NNE,22,3.5,4.0,47,0.00,OVC,,0.00,160.0,WeatherDisplay:10.37,2013-06-17 01:35:00,
2013-06-16 20:40:00,92.3,69.2,29.91,East,90,4.6,4.6,47,0.00,OVC,,0.00,160.0,WeatherDisplay:10.37,2013-06-17 01:40:00,
2013-06-16 20:45:00,91.9,68.8,29.91,SE,135,4.6,4.6,47,0.00,OVC,,0.00,220.0,WeatherDisplay:10.37,2013-06-17 01:45:00,
2013-06-16 20:51:00,91.8,69.3,29.92,SE,135,4.6,4.6,48,0.00,OVC,,0.00,250.0,WeatherDisplay:10.37,2013-06-17 01:51:00,
2013-06-16 20:56:00,91.6,69.7,29.92,SSE,158,5.8,5.8,49,0.00,OVC,,0.00,270.0,WeatherDisplay:10.37,2013-06-17 01:56:00,
2013-06-16 21:01:00,91.2,69.4,29.92,SE,135,3.7,3.7,49,0.00,CLR,,0.00,300.0,WeatherDisplay:10.37,2013-06-17 02:01:00,
2013-06-16 21:06:00,91.0,69.2,29.92,ESE,112,3.5,3.5,49,0.00,CLR,,0.00,350.0,WeatherDisplay:10.37,2013-06-17 02:06:00,
2013-06-16 21:11:00,91.0,69.8,29.92,SSE,158,4.6,4.6,50,0.00,CLR,,0.00,370.0,WeatherDisplay:10.37,2013-06-17 02:11:00,
2013-06-16 21:16:00,90.9,70.2,29.92,East,90,3.5,3.5,51,0.00,CLR,,0.00,420.0,WeatherDisplay:10.37,2013-06-17 02:16:00,
2013-06-16 21:22:00,90.7,70.1,29.92,ESE,112,2.3,2.4,51,0.00,CLR,,0.00,450.0,WeatherDisplay:10.37,2013-06-17 02:22:00,
2013-06-16 21:27:00,90.5,70.5,29.92,SE,135,3.6,3.6,52,0.00,CLR,,0.00,450.0,WeatherDisplay:10.37,2013-06-17 02:27:00,
2013-06-16 21:32:00,90.5,70.5,29.94,SE,135,2.3,2.3,52,0.00,CLR,,0.00,460.0,WeatherDisplay:10.37,2013-06-17 02:32:00,
2013-06-16 21:37:00,90.1,70.1,29.94,ESE,112,4.6,4.6,52,0.00,CLR,,0.00,520.0,WeatherDisplay:10.37,2013-06-17 02:37:00,
2013-06-16 21:42:00,90.0,70.0,29.94,ESE,112,4.9,4.9,52,0.00,CLR,,0.00,580.0,WeatherDisplay:10.37,2013-06-17 02:42:00,
2013-06-16 21:47:00,90.0,70.5,29.94,SE,135,3.5,3.5,53,0.00,CLR,,0.00,680.0,WeatherDisplay:10.37,2013-06-17 02:47:00,
2013-06-16 21:52:00,89.8,70.4,29.95,South,180,4.6,4.6,53,0.00,CLR,,0.00,680.0,WeatherDisplay:10.37,2013-06-17 02:52:00,
2013-06-16 21:58:00,89.8,70.4,29.95,SSE,158,4.6,4.6,53,0.00,CLR,,0.00,770.0,WeatherDisplay:10.37,2013-06-17 02:58:00,
2013-06-16 22:03:00,89.6,70.2,29.95,SE,135,6.9,6.9,53,0.00,CLR,,0.00,770.0,WeatherDisplay:10.37,2013-06-17 03:03:00,
2013-06-16 22:08:00,89.2,70.4,29.95,SSE,158,2.3,3.3,54,0.00,CLR,,0.00,800.0,WeatherDisplay:10.37,2013-06-17 03:08:00,
2013-06-16 22:13:00,89.2,70.4,29.95,South,180,3.5,3.5,54,0.00,CLR,,0.00,830.0,WeatherDisplay:10.37,2013-06-17 03:13:00,
2013-06-16 22:19:00,89.1,70.3,29.95,SE,135,4.6,4.6,54,0.00,CLR,,0.00,840.0,WeatherDisplay:10.37,2013-06-17 03:19:00,
2013-06-16 22:24:00,89.1,70.3,29.95,SSE,158,3.5,3.5,54,0.00,CLR,,0.00,0.0,WeatherDisplay:10.37,2013-06-17 03:24:00,
2013-06-16 22:29:00,88.9,70.6,29.95,ESE,112,3.5,3.5,55,0.00,CLR,,0.00,0.0,WeatherDisplay:10.37,2013-06-17 03:29:00,
2013-06-16 22:34:00,88.5,70.3,29.95,SSE,158,3.5,3.5,55,0.00,CLR,,0.00,0.0,WeatherDisplay:10.37,2013-06-17 03:34:00,
2013-06-16 22:39:00,88.7,70.5,29.95,ESE,112,2.3,2.3,55,0.00,CLR,,0.00,910.0,WeatherDisplay:10.37,2013-06-17 03:39:00,
2013-06-16 22:44:00,88.3,70.1,29.95,SE,135,2.6,2.6,55,0.00,CLR,,0.00,930.0,WeatherDisplay:10.37,2013-06-17 03:44:00,
2013-06-16 22:49:00,88.3,70.7,29.96,SE,135,2.6,2.6,56,0.00,CLR,,0.00,960.0,WeatherDisplay:10.37,2013-06-17 03:49:00,
2013-06-16 22:55:00,88.2,70.5,29.96,South,180,2.3,2.3,56,0.00,CLR,,0.00,960.0,WeatherDisplay:10.37,2013-06-17 03:55:00,
2013-06-16 23:00:00,88.0,69.8,29.96,South,180,3.5,3.5,55,0.00,CLR,,0.00,0.0,WeatherDisplay:10.37,2013-06-17 04:00:00,
2013-06-16 23:01:00,88.0,69.8,29.96,South,180,3.5,3.5,55,0.00,CLR,,0.00,0.0,WeatherDisplay:10.37,2013-06-17 04:01:00,
2013-06-16 23:02:00,87.8,69.6,29.96,SE,135,5.8,5.8,55,0.00,CLR,,0.00,960.0,WeatherDisplay:10.37,2013-06-17 04:02:00,
2013-06-16 23:07:00,88.0,69.8,29.96,South,180,3.7,3.7,55,0.00,CLR,,0.00,1020.0,WeatherDisplay:10.37,2013-06-17 04:07:00,
2013-06-16 23:08:00,88.0,69.8,29.96,SE,135,3.5,3.5,55,0.00,CLR,,0.00,1150.0,WeatherDisplay:10.37,2013-06-17 04:08:00,
2013-06-16 23:13:00,87.6,70.0,29.95,SE,135,3.5,3.5,56,0.00,CLR,,0.00,1200.0,WeatherDisplay:10.37,2013-06-17 04:13:00,
2013-06-16 23:18:00,87.6,70.0,29.95,SE,135,4.6,4.6,56,0.00,CLR,,0.00,1090.0,WeatherDisplay:10.37,2013-06-17 04:18:00,
2013-06-16 23:23:00,87.6,70.0,29.95,SE,135,3.5,3.5,56,0.00,CLR,,0.00,1090.0,WeatherDisplay:10.37,2013-06-17 04:23:00,
2013-06-16 23:28:00,87.4,69.8,29.95,South,180,2.3,2.6,56,0.00,CLR,,0.00,1050.0,WeatherDisplay:10.37,2013-06-17 04:28:00,
2013-06-16 23:34:00,87.3,69.6,29.96,SSE,158,2.3,2.4,56,0.00,CLR,,0.00,0.0,WeatherDisplay:10.37,2013-06-17 04:34:00,
2013-06-16 23:39:00,87.1,69.5,29.96,ESE,112,3.5,3.5,56,0.00,CLR,,0.00,0.0,WeatherDisplay:10.37,2013-06-17 04:39:00,
2013-06-16 23:44:00,87.3,70.2,29.96,ESE,112,3.5,3.5,57,0.00,CLR,,0.00,1170.0,WeatherDisplay:10.37,2013-06-17 04:44:00,
2013-06-16 23:49:00,87.1,70.0,29.95,SE,135,3.5,3.5,57,0.00,CLR,,0.00,1300.0,WeatherDisplay:10.37,2013-06-17 04:49:00,
2013-06-16 23:54:00,86.9,69.8,29.95,South,180,5.8,5.8,57,0.00,CLR,,0.00,1300.0,WeatherDisplay:10.37,2013-06-17 04:54:00,